[[{"header":{"parameterUnit":"m.s-1","parameterCategory":1,"la1":30.2991,"la2":30.254,"lo1":-89.0895,"lo2":-89.0444,"dy":0.0017,"dx":0.0017,"nx":28,"ny":28,"refTime":"2025-06-03T03:00:00:Z","depth":0,"parameterNumber":2,"parameterNumberName":"U-component_of_WINDS"},"data":[0,0,0,0,0,0,0,0,0,0,0,0,0,0,0,0,0,0,0,0,0,0,0,0,0,0,0,0,0,0,0,0,0,0,0,0,0,0,0,0,0,0,0,0,0,0,0,0,0,0,0,0,0,0,0,0,0,0,-4.0605,-4.0606,0,-4.0711,-4.0712,-4.0713,-4.0659,-4.0656,-4.0653,-4.065,-4.076,-4.0765,-4.0771,0,0,0,0,0,0,0,0,0,0,0,0,0,-4.0358,-4.0363,-4.0605,-4.0607,-4.0608,-4.0711,-4.0712,-4.0714,-4.0659,-4.0656,-4.0652,-4.0649,-4.0758,-4.0765,-4.0771,0,0,0,0,0,0,0,0,0,0,0,0,0,-4.0465,-4.0364,-4.0605,-4.0593,-4.0593,-4.071,-4.0712,-4.0714,-4.066,-4.0656,-4.0651,-4.0648,-4.0756,-4.0764,-4.0772,-4.0908,0,0,-4.0798,-4.0801,0,0,0,0,0,0,0,0,-4.0459,-4.0474,-4.0593,-4.0594,-4.0594,-4.0667,-4.0665,-4.0779,-4.0661,-4.0635,-4.065,-4.0645,-4.0733,-4.0743,-4.0772,-4.0913,-4.0918,-4.0798,-4.0803,-4.0807,-4.0809,0,0,0,0,0,0,0,-4.0451,-4.0469,-4.0647,-4.0595,-4.0596,-4.0583,-4.0593,-4.0686,-4.0706,-4.0637,-4.0633,-4.0646,-4.0732,-4.0764,-4.0774,-4.0919,-4.0798,-4.0806,-4.0811,-4.0814,-4.1177,-4.1181,0,0,0,0,0,0,-4.0444,-4.0463,-4.0644,-4.065,-4.0515,-4.0591,-4.0603,-4.0648,-4.0705,-4.0709,-4.0649,-4.0643,-4.0752,-4.0764,-4.0778,-4.0938,-4.0807,-4.0815,-4.082,-4.1172,-4.1178,-4.1183,0,0,0,0,0,0,-4.0439,-4.0461,-4.0639,-4.0556,-4.0577,-4.06,-4.0651,-4.0652,-4.0684,-4.0715,-4.0718,-4.0678,-4.0749,-4.0766,-4.0876,-4.0941,-4.0818,-4.0826,-4.1166,-4.1174,-4.118,-4.1262,0,0,0,0,0,0,-4.0432,-4.046,-4.0511,-4.0557,-4.0582,-4.0735,-4.0655,-4.0658,-4.0698,-4.0691,-4.0742,-4.0747,-4.0747,-4.0863,-4.0884,-4.095,-4.0833,-4.1161,-4.117,-4.1178,-4.1253,-4.1271,-4.1285,0,0,0,0,0,-4.0424,-4.053,-4.0513,-4.0536,-4.0646,-4.0739,-4.0753,-4.0751,-4.0704,-4.0755,-4.0775,-4.0745,-4.0932,-4.0875,-4.0898,-4.0968,-4.1156,-4.1167,-4.1177,-4.1246,-4.1267,-4.1285,0,0,0,0,0,0,-4.049,-4.0536,-4.0518,-4.0642,-4.0687,-4.0729,-4.0794,-4.0773,-4.0833,-4.0823,-4.0819,-4.0831,-4.0944,-4.0968,-4.0904,-4.1102,-4.1037,-4.1052,-4.1081,-4.1102,-4.1118,-4.1108,-4.0839,0,0,0,0,0,-4.052,-4.0591,-4.0627,-4.0733,-4.0756,-4.0772,-4.0812,-4.0807,-4.0853,-4.0872,-4.0899,-4.0946,-4.1015,-4.106,-4.1126,-4.1258,-4.1267,-4.1317,-4.1334,-4.1347,-4.1359,-4.1429,-4.1451,-4.1217,-4.1217,-4.1217,0,0,-4.058,-4.0614,-4.0659,-4.0747,-4.0781,-4.0855,-4.0788,-4.0869,-4.0923,-4.0884,-4.0988,-4.1011,-4.1063,-4.1184,-4.1239,-4.1207,-4.1427,-4.136,-4.137,-4.1375,-4.1442,-4.1464,-4.1484,-4.1224,-4.1223,-4.1222,0,0,-4.0728,-4.0762,-4.0852,-4.0888,-4.0941,-4.0951,-4.0973,-4.1019,-4.1032,-4.1137,-4.1109,-4.1175,-4.1294,-4.1332,-4.1366,-4.1531,-4.1504,-4.1553,-4.1635,-4.1704,-4.1722,-4.1738,-4.1794,-4.1815,-4.1565,-4.1566,-4.1566,0,-4.0796,-4.0905,-4.0902,-4.0985,-4.1024,-4.0993,-4.1085,-4.112,-4.1192,-4.122,-4.1184,-4.1332,-4.1366,-4.1494,-4.1534,-4.1565,-4.1589,-4.1544,-4.172,-4.1736,-4.1751,-4.1805,-4.1826,-4.1571,-4.157,-4.157,-4.1569,0,-4.0986,-4.1062,-4.113,-4.1198,-4.1246,-4.1334,-4.1344,-4.1393,-4.1384,-4.1398,-4.1505,-4.1545,-4.1616,-4.1648,-4.164,-4.1776,-4.1754,-4.172,-4.1653,-4.1779,-4.1829,-4.1849,-4.1578,-4.1576,-4.1575,-4.1574,0,0,-4.1174,-4.1242,-4.1266,-4.1296,-4.1353,-4.1412,-4.1499,-4.1569,-4.161,-4.1662,-4.1733,-4.1836,-4.1804,-4.1844,-4.1841,-4.1902,-4.2027,-4.186,-4.1861,-4.1887,-4.2176,-4.2199,-4.2222,-4.2012,-4.2016,-4.2019,-4.2171,0,-4.1323,-4.1472,-4.1473,-4.1611,-4.168,-4.1653,-4.1729,-4.1772,-4.1788,-4.1851,-4.1869,-4.1941,-4.1895,-4.1919,-4.1978,-4.1999,-4.2084,-4.1989,-4.2077,-4.208,-4.206,-4.2249,-4.2273,-4.2414,-4.2191,-4.2194,-4.2196,0,-4.1515,-4.1571,-4.1716,-4.1762,-4.1792,-4.1859,-4.1923,-4.1984,-4.2033,-4.204,-4.2086,-4.2074,-4.2163,-4.2097,-4.2219,-4.2154,-4.2191,-4.2207,-4.2213,-4.2217,-4.2143,-4.2256,-4.2459,-4.2479,-4.2228,-4.2225,-4.2223,0,-4.1634,-4.1747,-4.1847,-4.1875,-4.1932,-4.198,-4.2007,-4.2052,-4.2094,-4.2151,-4.2178,-4.2246,-4.2282,-4.2335,-4.2342,-4.2294,-4.2463,-4.2399,-4.2471,-4.2471,-4.2504,-4.2501,-4.2713,-4.2535,-4.2535,-4.2534,-4.2534,0,-4.1797,-4.1886,-4.1901,-4.1963,-4.2062,-4.2063,-4.2161,-4.2184,-4.2225,-4.229,-4.2273,-4.2335,-4.2342,-4.2407,-4.2414,-4.2512,-4.253,-4.2538,-4.2538,-4.2537,-4.2536,-4.2558,-4.2547,-4.254,-4.2539,-4.2537,-4.2537,0,-4.1944,-4.1959,-4.2066,-4.2112,-4.2126,-4.2196,-4.2236,-4.2295,-4.2311,-4.2394,-4.2414,-4.2439,-4.2514,-4.2527,-4.2617,-4.2621,-4.2738,-4.273,-4.2721,-4.2718,-4.2788,-4.278,-4.3019,-4.3049,-4.2855,-4.2857,-4.2858,0,-4.2045,-4.2113,-4.2166,-4.2208,-4.2237,-4.2306,-4.2349,-4.2354,-4.2399,-4.2461,-4.2513,-4.2586,-4.2644,-4.2767,-4.2793,-4.2861,-4.2852,-4.2932,-4.2862,-4.2859,-4.285,-4.2844,-4.285,-4.2943,-4.2945,-4.2947,-4.2948,0,-4.2222,-4.2226,-4.2288,-4.2353,-4.2404,-4.2456,-4.2505,-4.2541,-4.2553,-4.2606,-4.2682,-4.2727,-4.2819,-4.2891,-4.296,-4.2987,-4.297,-4.2971,-4.299,-4.2988,-4.2978,-4.2981,-4.2753,-4.2964,-4.2963,-4.2961,-4.2961,-4.296,-4.2347,-4.2405,-4.2451,-4.2521,-4.2559,-4.2605,-4.2662,-4.2685,-4.2749,-4.2822,-4.2823,-4.2906,-4.2955,-4.3044,-4.3077,-4.3143,-4.3117,-4.3147,-4.3153,-4.3159,-4.3164,-4.2972,-4.3156,-4.3155,-4.3155,-4.3155,-4.3154,0,-4.252,-4.2549,-4.2613,-4.2681,-4.2737,-4.2717,-4.277,-4.2817,-4.2891,-4.2937,-4.2995,-4.3083,-4.3154,-4.3187,-4.3257,-4.3304,-4.3297,-4.3322,-4.3316,-4.3322,-4.3185,-4.3159,-4.3325,-4.3325,-4.3325,-4.3325,-4.3325,-4.3325,-4.2616,-4.2712,-4.2722,-4.2838,-4.2866,-4.2947,-4.2979,-4.3022,-4.3059,-4.3157,-4.3216,-4.3237,-4.3278,-4.3351,-4.3416,-4.3424,-4.3449,-4.3476,-4.348,-4.335,-4.3332,-4.3316,-4.3291,-4.3483,-4.3483,-4.3612,-4.3613,-4.3614]},{"header":{"parameterUnit":"m.s-1","parameterCategory":1,"la1":30.2991,"la2":30.254,"lo1":-89.0895,"lo2":-89.0444,"dy":0.0017,"dx":0.0017,"nx":28,"ny":28,"refTime":"2025-06-03T03:00:00:Z","depth":0,"parameterNumber":3,"parameterNumberName":"V-component_of_WINDS"},"data":[0,0,0,0,0,0,0,0,0,0,0,0,0,0,0,0,0,0,0,0,0,0,0,0,0,0,0,0,0,0,0,0,0,0,0,0,0,0,0,0,0,0,0,0,0,0,0,0,0,0,0,0,0,0,0,0,0,0,1.0826,1.0826,0,1.0825,1.0824,1.0824,1.0843,1.0843,1.0844,1.0844,1.0839,1.0839,1.0838,0,0,0,0,0,0,0,0,0,0,0,0,0,1.0841,1.084,1.0826,1.0826,1.0826,1.0825,1.0824,1.0824,1.0843,1.0843,1.0844,1.0845,1.0839,1.0839,1.0838,0,0,0,0,0,0,0,0,0,0,0,0,0,1.0836,1.084,1.0826,1.0835,1.0836,1.0825,1.0824,1.0824,1.0843,1.0843,1.0844,1.0845,1.084,1.0839,1.0838,1.0817,0,0,1.0835,1.0835,0,0,0,0,0,0,0,0,1.0836,1.0836,1.0833,1.0834,1.0835,1.0835,1.0828,1.0822,1.0842,1.084,1.0844,1.0845,1.0837,1.0836,1.0834,1.0817,1.0816,1.0835,1.0834,1.0834,1.0834,0,0,0,0,0,0,0,1.0837,1.0836,1.0825,1.0833,1.0834,1.0838,1.0838,1.0827,1.0834,1.084,1.0841,1.0841,1.0837,1.0835,1.0834,1.0816,1.0835,1.0834,1.0834,1.0833,1.0781,1.0781,0,0,0,0,0,0,1.0836,1.0836,1.0825,1.0825,1.0838,1.0837,1.0837,1.0834,1.0834,1.0835,1.0841,1.0842,1.0836,1.0835,1.0834,1.0809,1.0834,1.0833,1.0833,1.0782,1.0781,1.078,0,0,0,0,0,0,1.0837,1.0835,1.0825,1.0831,1.083,1.0836,1.0832,1.0834,1.0831,1.0835,1.0836,1.0837,1.0837,1.0835,1.0821,1.0809,1.0833,1.0832,1.0783,1.0782,1.0781,1.076,0,0,0,0,0,0,1.0837,1.0835,1.0828,1.0831,1.083,1.0813,1.0831,1.0833,1.083,1.0832,1.0832,1.0832,1.0837,1.0823,1.082,1.0809,1.0831,1.0784,1.0783,1.0781,1.0762,1.0758,1.0755,0,0,0,0,0,1.0837,1.0821,1.0828,1.0826,1.0821,1.0813,1.0812,1.0819,1.0829,1.0821,1.0824,1.0832,1.0811,1.0821,1.0819,1.0806,1.0785,1.0783,1.0781,1.0763,1.0759,1.0755,0,0,0,0,0,0,1.0816,1.0822,1.0829,1.0813,1.0813,1.0816,1.0806,1.0814,1.081,1.0812,1.082,1.082,1.0804,1.0804,1.0814,1.0786,1.08,1.0797,1.0787,1.0783,1.0779,1.0779,1.083,0,0,0,0,0,1.0809,1.0803,1.0809,1.0794,1.0794,1.08,1.0797,1.0803,1.0802,1.0801,1.0802,1.08,1.0793,1.0788,1.0781,1.0762,1.0762,1.0752,1.0749,1.0746,1.0744,1.0733,1.0729,1.0774,1.0774,1.0774,0,0,1.0796,1.0798,1.0794,1.079,1.079,1.0783,1.08,1.0791,1.0785,1.0799,1.0786,1.0787,1.0785,1.0768,1.0761,1.0767,1.0732,1.0744,1.0742,1.0741,1.0731,1.0727,1.0723,1.0773,1.0773,1.0773,0,0,1.0767,1.0769,1.0757,1.0757,1.0757,1.0762,1.0759,1.0761,1.0763,1.075,1.0761,1.0754,1.0741,1.0739,1.0737,1.0708,1.0715,1.0706,1.0688,1.0678,1.0674,1.0671,1.066,1.0656,1.0703,1.0703,1.0703,0,1.0749,1.074,1.075,1.0741,1.0738,1.0752,1.074,1.0739,1.0737,1.0735,1.0743,1.0728,1.0727,1.071,1.0703,1.0701,1.0697,1.0705,1.0674,1.0671,1.0668,1.0658,1.0654,1.0702,1.0702,1.0702,1.0702,0,1.0718,1.0711,1.0702,1.0701,1.0697,1.0687,1.0694,1.0689,1.0696,1.0699,1.0686,1.0686,1.068,1.0676,1.0682,1.066,1.0664,1.0673,1.0687,1.0662,1.0653,1.0649,1.07,1.0701,1.0701,1.0701,0,0,1.0675,1.068,1.0676,1.0676,1.0678,1.0672,1.0662,1.0657,1.0653,1.0651,1.0642,1.0632,1.064,1.0637,1.0643,1.0634,1.061,1.0644,1.0644,1.0637,1.0585,1.0578,1.0573,1.0616,1.0615,1.0614,1.0585,0,1.0647,1.0631,1.0639,1.0621,1.0615,1.0628,1.0619,1.0619,1.0622,1.0615,1.0618,1.0611,1.0623,1.0621,1.0613,1.0615,1.06,1.0617,1.0606,1.0605,1.0606,1.0569,1.0561,1.0533,1.0582,1.0581,1.0581,0,1.0612,1.061,1.0591,1.0595,1.0592,1.0584,1.058,1.0575,1.0574,1.0577,1.0574,1.0582,1.0571,1.0585,1.057,1.0581,1.0577,1.0578,1.0577,1.0575,1.0591,1.0565,1.0525,1.052,1.0575,1.0575,1.0576,0,1.0581,1.0574,1.0562,1.0562,1.0565,1.0559,1.056,1.056,1.0557,1.0554,1.0551,1.0546,1.0543,1.0539,1.0544,1.0554,1.0528,1.0543,1.0529,1.0529,1.0522,1.0522,1.0479,1.052,1.052,1.0521,1.0521,0,1.0549,1.0537,1.0549,1.0541,1.0528,1.0538,1.0525,1.0527,1.0527,1.052,1.0531,1.0523,1.0532,1.0525,1.0529,1.0515,1.0514,1.0515,1.0516,1.0513,1.0513,1.051,1.0512,1.0519,1.052,1.052,1.052,0,1.0512,1.052,1.0508,1.0513,1.0514,1.0504,1.0507,1.05,1.0504,1.0495,1.0493,1.0499,1.0491,1.0497,1.0488,1.0491,1.0473,1.0477,1.0474,1.0474,1.046,1.0461,1.0413,1.0407,1.0453,1.0452,1.0452,0,1.0491,1.0482,1.0486,1.0483,1.0484,1.0477,1.0475,1.0484,1.048,1.0479,1.0472,1.0465,1.0461,1.0448,1.045,1.0444,1.0448,1.0432,1.0447,1.0445,1.0447,1.0447,1.0446,1.0428,1.0428,1.0427,1.0427,0,1.0452,1.0456,1.0452,1.0449,1.0446,1.0444,1.0442,1.0438,1.0448,1.0443,1.0436,1.0433,1.0425,1.0418,1.0413,1.0413,1.0421,1.0422,1.0418,1.0415,1.0414,1.0414,1.0464,1.0423,1.0423,1.0424,1.0424,1.0424,1.0422,1.0415,1.0417,1.0412,1.0412,1.0411,1.0404,1.0408,1.0403,1.0398,1.0404,1.0395,1.0394,1.0389,1.0387,1.038,1.0386,1.0381,1.038,1.0378,1.0376,1.0416,1.0379,1.0379,1.0379,1.0379,1.038,0,1.0382,1.0385,1.038,1.0378,1.0374,1.0384,1.0383,1.0379,1.0371,1.0371,1.0366,1.0358,1.0351,1.0354,1.0348,1.0341,1.0345,1.0339,1.034,1.0339,1.0371,1.0374,1.0337,1.0337,1.0337,1.0337,1.0337,1.0337,1.0362,1.035,1.0355,1.0343,1.0345,1.0338,1.0336,1.0335,1.0334,1.0325,1.032,1.0322,1.0323,1.0317,1.0311,1.0312,1.0309,1.0302,1.0304,1.0333,1.0337,1.0341,1.0344,1.0301,1.0301,1.0273,1.0273,1.0272]}]]